Regional Weather Roundup
Issued by NWS

Home | Current Version | Previous Version | Graphics & Text | Print | Product List | Glossary On
Versions: 1 2 3 4 5 6 7 8 9 10 11 12 13 14 15 16 17 18 19 20 21 22 23 24 25 26 27 28 29 30 31 32 33 34 35 36 37 38 39 40 41 42 43 44 45 46 47
000
ASUS45 KCYS 211910
RWRWY

WYOMING REGIONAL WEATHER ROUNDUP
NATIONAL WEATHER SERVICE CHEYENNE WY
100 PM MDT TUE OCT 21 2014

NOTE:  "FAIR" INDICATES FEW OR NO CLOUDS BELOW 12,000 FEET
WITH NO SIGNIFICANT WEATHER AND/OR OBSTRUCTIONS TO VISIBILITY.

WYZ001-212000-
YELLOWSTONE NATIONAL PARK

CITY           SKY/WX    TMP DP  RH WIND       PRES   REMARKS
LK YELLOWSTONE   N/A     38  35  89 VRB3      30.02R
W YELLOWSTONE  NOT AVBL

$$
WYZ002>013-054>058-071-098>099-212000-
NORTHERN WYOMING

CITY           SKY/WX    TMP DP  RH WIND       PRES   REMARKS
JACKSON        CLOUDY    45  39  81 W6        29.99R
CODY           CLOUDY   N/A N/A N/A W13G22    29.80F
GREYBULL       PTSUNNY   71  35  26 S10       29.74F
WORLAND        PTSUNNY   72  38  29 SW21G30   29.77S
SHERIDAN       MOSUNNY   76  34  21 SW12      29.70F
BUFFALO        MOSUNNY   76  30  18 SW24G31   29.78F
GILLETTE       SUNNY     76  38  25 SW21G26   29.76F
HULETT         FAIR      73  39  29 SW18      29.78
NEWCASTLE      FAIR      73  37  27 S9        29.84

$$
WYZ014>020-022>026-101>103-212000-
CENTRAL WYOMING

CITY           SKY/WX    TMP DP  RH WIND       PRES   REMARKS
BIG PINEY      PTSUNNY   52  41  66 W5        29.99F
PINEDALE       TSTM      46  39  76 S3G25     30.00F
DUBOIS         FAIR      54  36  50 W25G33    29.92F
LANDER         PTSUNNY   69  36  29 W17G29    29.84F
RIVERTON       MOSUNNY   69  35  28 S15G26    29.85F
CASPER         MOSUNNY   69  38  32 SW20G30   29.89F
DOUGLAS        SUNNY     76  37  24 W20G28    29.89F

$$
WYZ021-027>030-104>119-212000-
SOUTHERN WYOMING

CITY           SKY/WX    TMP DP  RH WIND       PRES   REMARKS
EVANSTON       MOSUNNY   57  36  45 W26G36    30.01S
KEMMERER       CLOUDY    54  37  54 W21       30.01F
FORT BRIDGER   FAIR      64  32  29 W23G36    30.02S
ROCK SPRINGS   PTSUNNY   60  35  39 SW17      29.99F
DIXON          FAIR      61  43  50 SE5       30.07F
RAWLINS        MOSUNNY   64  37  36 SW26G39   30.01F
SARATOGA       MOCLDY    61  37  41 SW20G26   30.06F
LARAMIE        MOSUNNY   64  34  32 SW22G29   30.06F
CHEYENNE       PTSUNNY   70  35  27 MISG      30.00F
TORRINGTON     MOSUNNY   74  43  32 S8        29.89F
PINE BLUFFS    FAIR      77  34  20 SW7       29.96F

$$



USA.gov is the U.S. government's official web portal to all federal, state and local government web resources and services.